Wind_Speed
25 25 24 24 24 24 24 24 24 24 24 24 25 25 25 26 26 27 28 28 29 29 30 30 30 31 31 31 31 31 31 31 31 31 31 31 32 31 31 32 32 32 32
27 27 26 26 25 25 25 25 26 26 26 26 26 26 27 28 28 29 29 30 31 31 31 31 32 32 33 33 33 33 32 33 33 33 33 33 33 33 33 33 34 34 35
28 28 28 27 27 27 27 27 27 27 27 27 27 27 28 29 30 31 31 32 32 33 33 33 33 34 34 34 34 34 34 35 35 35 35 35 35 36 36 36 36 37 37
29 29 29 28 28 28 28 28 28 28 28 28 28 29 30 31 32 32 32 33 33 33 34 34 34 35 35 35 36 36 36 36 37 37 37 37 38 38 39 39 40 40 40
31 30 30 30 30 30 29 29 29 29 30 30 31 32 32 33 33 33 33 34 34 34 35 35 35 36 36 37 37 37 38 38 39 39 39 40 40 41 41 42 43 43 43
32 32 31 31 31 31 31 31 31 32 32 32 32 33 34 34 35 34 34 35 36 36 36 37 37 37 38 38 38 39 40 40 40 40 40 41 42 43 44 44 45 45 45
34 33 34 33 33 33 33 33 33 33 34 34 34 35 35 35 34 35 35 36 37 38 39 39 39 39 39 39 39 40 40 41 41 42 42 43 43 44 45 46 46 47 48
35 35 35 35 35 35 34 34 34 35 35 35 35 36 35 35 35 36 37 37 38 39 40 40 40 40 40 39 40 40 41 42 42 43 44 45 45 46 46 47 48 48 48
37 36 36 36 36 35 35 35 35 36 36 36 37 37 37 37 37 38 38 39 40 40 40 40 41 41 40 40 40 41 41 42 44 44 45 45 45 46 46 48 49 48 48
38 38 37 37 36 36 36 36 36 36 37 38 38 38 39 39 40 40 40 40 41 41 41 41 41 41 41 41 42 42 43 44 45 45 45 45 45 46 46 46 46 46 45
38 38 38 38 37 38 37 37 37 38 38 39 39 40 41 41 42 43 42 41 41 42 42 42 42 42 42 43 44 44 44 44 44 45 45 45 45 45 45 44 44 44 43
39 39 39 38 38 39 39 39 39 39 40 40 41 41 41 42 43 44 44 43 43 42 42 42 43 43 43 44 44 44 44 44 44 45 45 46 46 45 45 44 44 44 45
41 40 40 39 39 40 40 40 40 41 41 41 42 42 43 43 44 44 44 44 43 43 42 42 42 43 44 44 44 44 44 45 46 47 48 47 47 46 45 45 45 46 46
41 41 41 40 41 41 42 42 42 42 42 42 43 43 44 44 44 44 44 45 44 43 42 42 42 43 45 45 45 45 46 47 48 49 49 47 47 47 46 46 46 46 47
42 42 42 42 42 43 43 43 43 43 44 44 44 45 45 44 44 44 44 44 44 43 42 42 43 44 45 45 46 47 48 48 49 49 49 48 48 48 48 47 47 48 48
44 44 43 44 44 45 45 45 45 45 45 45 46 46 45 45 44 44 44 44 44 45 43 43 44 45 46 46 47 48 49 50 50 49 48 48 48 48 48 48 49 50 50
45 46 46 45 45 45 45 46 46 46 47 47 47 46 45 45 45 45 45 45 45 46 46 45 46 46 47 47 48 49 50 49 49 48 48 47 47 48 49 49 50 51 51
47 47 47 47 47 46 46 46 47 47 47 47 46 46 46 45 45 45 46 46 46 47 47 47 47 48 49 49 50 50 49 48 48 47 47 48 48 49 50 51 51 51 51
48 47 47 47 47 47 47 47 48 48 47 47 46 46 46 46 45 46 46 47 47 48 49 49 49 50 51 51 51 50 49 48 48 48 49 49 50 50 50 50 51 51 51
48 48 48 48 48 49 49 48 48 48 47 47 47 46 46 47 47 47 48 48 48 49 50 51 51 52 52 51 50 49 49 49 49 49 49 50 50 50 50 50 50 50 49
49 49 49 49 49 49 49 48 48 48 48 47 47 47 47 48 48 48 49 49 50 51 52 52 53 52 51 50 50 50 49 48 48 49 49 49 49 48 49 49 49 48 48
50 50 50 51 50 50 50 49 49 49 48 48 48 48 48 49 50 50 50 51 52 53 53 54 53 52 51 50 50 49 49 48 48 48 48 48 48 48 48 48 48 48 48
51 51 51 50 50 50 50 50 50 49 48 48 49 49 50 51 52 52 52 53 54 54 54 54 52 51 50 50 50 49 49 48 48 48 47 46 47 47 47 48 48 48 47
51 51 51 51 51 51 51 50 49 49 49 50 50 51 51 52 53 54 54 54 55 54 53 52 51 50 50 50 49 48 48 48 48 48 47 46 46 47 47 47 48 47 47
50 51 51 51 51 51 50 50 50 49 49 50 50 51 52 53 54 55 55 54 54 52 52 51 50 50 50 49 49 49 49 48 47 46 46 46 46 45 46 46 46 47 47
50 50 50 50 50 50 49 50 50 50 50 51 51 52 53 55 55 54 53 53 52 51 51 49 50 50 50 50 49 49 49 47 46 45 45 46 45 45 44 45 45 46 46
Wind_Direction
260 263 265 266 269 270 272 275 277 279 281 283 284 285 287 289 291 292 293 295 296 297 297 296 296 296 295 294 293 292 292 291 291 292 291 291 291 290 289 289 289 288 288
259 262 265 267 269 271 273 274 277 278 280 282 284 285 287 288 290 291 292 293 294 295 296 296 295 295 295 294 294 293 291 290 290 292 290 290 290 289 289 288 288 288 288
260 262 264 267 269 271 273 274 276 278 281 282 283 285 287 288 290 291 292 293 293 294 295 296 296 296 295 294 293 293 292 291 290 290 290 290 290 289 289 289 288 287 287
260 262 264 266 268 270 272 274 276 278 280 281 284 286 288 289 290 291 292 293 293 294 295 295 296 296 295 294 293 294 293 291 291 290 290 290 290 289 288 288 287 287 287
260 262 264 266 268 270 272 273 275 278 280 282 284 286 288 289 290 291 291 292 293 294 295 295 295 295 295 294 294 293 293 292 291 291 290 290 290 290 290 288 287 287 287
260 262 264 265 267 269 271 273 275 278 280 282 284 286 288 290 290 291 291 292 293 294 294 294 295 295 295 294 293 293 293 293 292 291 290 290 291 291 290 289 288 287 286
260 262 264 265 267 268 271 273 275 277 279 282 284 286 289 289 290 291 291 292 293 294 294 293 293 294 294 294 293 293 292 292 292 292 291 291 292 292 291 289 289 288 287
259 261 263 265 267 269 271 273 275 277 280 282 285 287 287 288 289 291 292 293 293 294 295 294 293 293 293 293 293 292 292 293 293 293 293 292 292 292 292 290 289 288 287
258 260 262 264 266 268 271 273 275 278 280 282 285 286 287 287 288 290 292 293 293 294 294 295 294 293 292 292 293 293 293 294 295 295 295 295 295 294 294 292 291 290 289
259 261 262 263 265 268 271 273 275 278 280 282 284 286 287 288 289 290 291 292 293 293 294 295 294 293 293 293 293 293 294 295 295 296 297 298 298 297 297 295 294 292 290
259 261 262 263 265 268 271 272 275 278 281 283 284 286 287 288 290 290 290 291 291 292 293 294 293 293 293 293 293 294 295 295 296 297 298 298 298 299 298 296 295 293 291
260 261 261 263 266 268 271 273 276 279 281 283 284 286 288 289 290 291 291 291 291 291 292 293 293 293 293 293 294 295 296 297 297 298 298 298 298 297 297 296 296 294 292
259 261 262 264 267 269 271 273 276 279 281 283 284 286 288 289 290 291 291 291 291 291 292 293 292 293 294 295 295 296 297 298 299 298 298 297 297 296 296 296 296 295 293
260 261 263 265 267 269 271 273 276 279 281 283 285 286 288 289 290 291 291 291 292 292 292 293 293 294 295 296 296 297 298 299 299 299 298 297 296 296 296 296 295 295 293
260 262 264 265 267 269 271 274 276 279 281 283 285 286 288 289 290 290 291 292 293 293 293 293 294 294 296 296 296 297 298 298 299 298 296 295 296 296 295 295 295 295 294
260 262 266 268 269 270 272 275 277 279 281 282 284 285 287 288 289 290 291 292 293 294 293 293 294 295 296 296 296 298 298 298 299 298 297 296 296 296 296 296 295 296 295
261 263 265 267 270 271 273 275 276 278 280 282 283 284 285 286 288 289 290 291 292 293 293 294 294 296 296 296 297 298 298 298 298 297 297 297 297 297 297 297 297 297 296
261 263 266 268 271 272 273 275 277 278 280 281 282 283 284 285 287 288 289 290 291 292 293 294 294 295 296 297 297 298 298 298 297 297 297 297 297 298 297 297 297 297 296
261 263 266 268 270 272 274 276 277 278 279 280 281 282 283 285 286 287 289 290 290 291 292 293 294 295 296 296 297 297 297 297 297 297 298 298 298 298 298 298 297 296 296
261 263 266 268 270 271 274 276 277 278 278 279 281 282 283 285 286 287 288 289 290 292 293 294 295 295 295 296 296 296 296 295 296 298 298 298 298 298 299 298 298 298 297
262 264 266 268 270 272 273 274 276 277 278 279 280 282 283 285 286 287 288 290 291 292 293 294 295 295 295 295 295 295 295 295 297 298 298 298 298 299 299 299 299 299 298
263 265 267 268 270 271 272 274 275 277 278 279 280 281 283 285 286 288 289 290 291 292 294 295 295 295 295 294 295 296 296 296 297 297 297 298 298 298 299 299 299 299 298
263 266 267 268 270 271 273 274 275 276 277 279 280 282 284 285 286 287 289 290 291 292 293 294 294 294 294 295 295 296 296 297 297 297 297 298 298 298 299 300 300 299 299
264 266 268 269 270 271 273 274 275 275 278 279 281 282 284 285 286 287 288 290 291 292 292 292 293 293 294 295 296 296 296 296 297 297 297 297 298 298 299 300 300 300 300
265 266 267 268 269 271 272 273 275 276 277 279 281 282 283 285 286 287 288 289 290 290 290 290 291 293 294 295 295 296 296 297 297 296 297 298 298 298 299 300 300 301 301
265 266 267 268 270 271 272 273 275 276 278 280 281 282 283 285 286 287 288 289 289 290 290 290 292 293 294 294 295 296 296 296 296 296 297 297 298 298 298 300 301 302 302
Height
5849 5849 5850 5851 5851 5852 5852 5852 5852 5852 5852 5851 5851 5850 5849 5848 5847 5846 5845 5844 5842 5840 5839 5837 5835 5834 5832 5830 5829 5827 5825 5824 5822 5821 5819 5817 5815 5814 5812 5811 5809 5808 5806
5843 5844 5845 5846 5846 5847 5847 5847 5847 5847 5847 5846 5845 5845 5844 5843 5842 5841 5839 5838 5836 5834 5833 5831 5829 5827 5826 5824 5822 5820 5819 5817 5815 5814 5812 5810 5808 5806 5805 5803 5801 5800 5798
5838 5839 5840 5841 5841 5841 5842 5842 5842 5841 5841 5840 5840 5839 5838 5837 5836 5835 5833 5831 5830 5828 5826 5824 5822 5821 5819 5817 5815 5813 5811 5809 5808 5806 5804 5802 5800 5798 5797 5795 5793 5791 5789
5832 5833 5834 5835 5835 5836 5836 5836 5836 5836 5836 5835 5834 5834 5832 5831 5830 5828 5827 5825 5823 5821 5819 5817 5815 5813 5811 5809 5807 5805 5803 5801 5799 5798 5796 5794 5791 5789 5787 5785 5783 5781 5779
5826 5827 5828 5829 5829 5830 5830 5830 5830 5830 5830 5829 5828 5827 5826 5825 5823 5822 5820 5818 5816 5814 5812 5810 5808 5806 5804 5801 5799 5797 5795 5793 5791 5788 5786 5784 5782 5780 5777 5775 5773 5771 5769
5819 5821 5821 5822 5823 5823 5824 5824 5824 5823 5823 5822 5822 5821 5819 5818 5816 5815 5813 5811 5809 5807 5805 5802 5800 5798 5795 5793 5791 5788 5786 5783 5781 5778 5776 5774 5771 5769 5767 5764 5761 5759 5757
5813 5814 5815 5815 5816 5816 5817 5817 5817 5816 5816 5815 5814 5813 5812 5811 5809 5807 5805 5803 5801 5799 5796 5794 5792 5789 5787 5784 5782 5779 5776 5774 5771 5768 5766 5763 5761 5758 5755 5752 5749 5746 5744
5805 5806 5807 5808 5809 5809 5810 5810 5809 5809 5808 5808 5807 5805 5805 5804 5802 5800 5797 5795 5793 5790 5788 5785 5782 5780 5777 5774 5772 5769 5766 5764 5761 5758 5755 5752 5749 5746 5742 5739 5735 5732 5730
5798 5799 5800 5801 5801 5802 5802 5802 5802 5801 5801 5800 5798 5797 5796 5795 5794 5793 5789 5787 5784 5781 5779 5776 5773 5770 5768 5765 5762 5759 5756 5753 5750 5747 5744 5741 5737 5733 5729 5726 5722 5719 5716
5790 5791 5792 5793 5794 5794 5794 5794 5794 5793 5793 5792 5790 5789 5787 5785 5784 5783 5782 5778 5775 5772 5769 5766 5763 5760 5758 5755 5752 5749 5746 5743 5739 5736 5732 5729 5725 5720 5716 5712 5708 5705 5702
5781 5783 5784 5785 5786 5786 5786 5786 5786 5785 5784 5783 5782 5780 5778 5776 5773 5771 5771 5769 5766 5763 5760 5757 5754 5751 5748 5745 5742 5739 5736 5732 5728 5725 5721 5717 5713 5708 5704 5700 5696 5693 5690
5773 5774 5776 5776 5777 5777 5778 5778 5777 5776 5775 5774 5773 5771 5769 5767 5764 5761 5759 5758 5756 5754 5751 5747 5744 5740 5737 5734 5731 5728 5725 5721 5718 5714 5710 5705 5701 5697 5693 5689 5685 5682 5679
5764 5765 5767 5768 5768 5768 5769 5768 5768 5767 5766 5765 5763 5762 5759 5757 5754 5751 5748 5746 5745 5744 5741 5737 5733 5730 5727 5724 5721 5718 5714 5711 5706 5702 5698 5694 5689 5685 5681 5678 5674 5670 5667
5755 5756 5757 5758 5759 5759 5759 5759 5758 5758 5757 5755 5754 5752 5749 5747 5744 5741 5738 5735 5734 5733 5731 5728 5724 5720 5717 5713 5710 5707 5703 5699 5695 5690 5686 5682 5677 5673 5670 5666 5662 5658 5654
5746 5747 5747 5748 5749 5749 5749 5749 5748 5748 5747 5745 5743 5741 5739 5737 5734 5731 5728 5725 5723 5721 5721 5718 5714 5710 5706 5703 5699 5696 5692 5688 5683 5678 5674 5670 5665 5661 5657 5654 5650 5646 5642
5736 5737 5737 5738 5739 5739 5739 5738 5738 5737 5736 5735 5733 5731 5729 5726 5723 5721 5718 5715 5712 5710 5709 5708 5704 5700 5696 5692 5688 5684 5680 5676 5671 5666 5662 5658 5653 5649 5645 5641 5637 5633 5629
5725 5726 5727 5728 5728 5728 5728 5728 5727 5726 5725 5724 5722 5720 5718 5716 5713 5711 5708 5705 5702 5699 5697 5696 5692 5689 5685 5681 5677 5673 5668 5664 5659 5654 5650 5646 5642 5637 5633 5629 5624 5620 5616
5715 5715 5716 5717 5718 5718 5717 5717 5716 5715 5714 5712 5711 5709 5707 5705 5703 5700 5697 5694 5691 5688 5685 5683 5681 5677 5673 5669 5665 5661 5656 5652 5648 5643 5639 5634 5630 5625 5620 5616 5612 5607 5602
5704 5705 5706 5706 5706 5706 5706 5705 5704 5703 5702 5701 5699 5698 5696 5694 5692 5689 5686 5683 5680 5677 5674 5671 5668 5665 5661 5656 5653 5649 5644 5640 5636 5631 5627 5622 5618 5612 5607 5603 5598 5593 5589
5692 5693 5694 5695 5695 5694 5694 5693 5693 5692 5691 5690 5688 5686 5684 5682 5680 5678 5675 5672 5669 5665 5662 5658 5655 5652 5648 5644 5639 5636 5633 5628 5624 5619 5614 5610 5605 5600 5595 5590 5585 5580 5576
5681 5682 5682 5683 5683 5682 5682 5682 5681 5680 5679 5678 5676 5675 5673 5671 5668 5666 5663 5660 5656 5653 5649 5646 5643 5639 5635 5631 5627 5623 5620 5616 5612 5607 5602 5597 5592 5588 5582 5577 5572 5567 5563
5669 5669 5670 5670 5670 5670 5670 5669 5669 5668 5667 5666 5665 5663 5661 5659 5656 5654 5651 5647 5644 5640 5636 5633 5630 5626 5622 5618 5614 5610 5606 5603 5600 5596 5590 5586 5580 5576 5570 5565 5560 5555 5550
5656 5657 5657 5657 5657 5657 5657 5657 5656 5656 5655 5654 5652 5651 5649 5647 5644 5641 5638 5635 5631 5627 5623 5620 5616 5612 5609 5605 5601 5598 5593 5589 5586 5582 5577 5574 5569 5564 5558 5553 5548 5543 5538
5643 5644 5644 5644 5645 5645 5645 5644 5644 5643 5642 5641 5640 5638 5636 5633 5631 5628 5625 5622 5618 5614 5610 5606 5603 5600 5596 5592 5588 5584 5581 5577 5574 5569 5564 5561 5557 5552 5547 5542 5536 5531 5526
5630 5631 5631 5631 5632 5632 5632 5631 5631 5630 5629 5628 5626 5624 5622 5620 5617 5614 5611 5608 5605 5601 5597 5593 5590 5587 5583 5579 5575 5572 5568 5564 5562 5558 5552 5548 5545 5541 5536 5531 5525 5519 5513
5617 5617 5618 5618 5618 5619 5618 5618 5618 5617 5617 5615 5614 5611 5608 5605 5602 5599 5596 5593 5591 5588 5584 5581 5578 5574 5571 5567 5563 5559 5555 5551 5548 5546 5541 5536 5532 5528 5526 5521 5514 5508 5502